Simultaneous Nadir Overpasses (SNOs) Predictions

Prediction of SNOs between GOES-15 and TERRA Satellite Orbit:

Table of predicted SNOs for the next 14.0 days since TLE Epoch: 10/9/2021
Index Date Time (GOES-15) GOES-15 Lat,Lon TERRA Lat,Lon Distance(km) Time Diff (sec)
1 10/09/2021 18:58:25 -0.37,-127.99 -0.37,-127.87 12.90 80
2 10/11/2021 18:46:12 -0.36,-128.05 -1.06,-124.93 355.22 80
3 10/12/2021 07:07:35 0.37,-128.07 -0.08,-130.11 232.62 80
4 10/14/2021 06:52:41 0.36,-128.12 0.55,-127.16 109.44 80
5 10/14/2021 19:13:56 -0.36,-128.12 0.53,-132.32 476.83 80
6 10/16/2021 06:40:27 0.35,-128.17 1.19,-124.20 451.43 80
7 10/16/2021 19:01:42 -0.35,-128.17 -0.10,-129.36 134.76 80
8 10/18/2021 18:52:08 -0.35,-128.23 -0.75,-126.40 207.29 80
9 10/19/2021 07:13:31 0.35,-128.25 -0.38,-131.59 380.22 80
10 10/21/2021 07:01:17 0.35,-128.30 0.26,-128.63 38.56 80
